Location: Proctor
(47.8934°N, 114.3048°W)
Time: 10:23:16
(UTC+00:00)

Transit 4A - Pass Details

Date: 04 July 2024
Orbit: 870 x 973 km, 66.8° (Epoch: 13 July)

Event Time Altitude Azimuth Distance (km) Brightness Sun altitude
Rises 08:33:14 0° 319° (NW) 3,478 11.4 -18.4°
Reaches altitude 10° 08:37:11 10° 345° (NNW) 2,552 11.1 -18.2°
Maximum altitude 08:40:04 14° 15° (NNE) 2,309 11.1 -18.1°
Drops below altitude 10° 08:42:58 10° 44° (NE) 2,577 11.1 -18.0°
Sets 08:46:59 0° 70° (ENE) 3,540 11.5 -17.8°
